timestamp,wind_dir_avg,wind_spd_avg,wind_spd_max_dir,wind_spd_gust,battery_voltage,lat,long
2021-02-21 00:04:01+00:00,42.0,10.43,51.0,12.14,12.41,47.59359,-54.27349
2021-02-21 00:14:01+00:00,40.0,9.82,40.0,12.63,12.49,47.59359,-54.27349
2021-02-21 00:24:01+00:00,42.0,11.64,40.0,12.55,12.49,47.59359,-54.27349
2021-02-21 00:34:01+00:00,45.0,10.8,46.0,13.51,12.49,47.59359,-54.27349
2021-02-21 00:44:01+00:00,52.0,10.05,51.0,12.06,12.49,47.59359,-54.27349
2021-02-21 00:54:01+00:00,32.0,10.24,43.0,12.02,12.49,47.59359,-54.27349
2021-02-21 01:04:01+00:00,29.0,9.77,41.0,12.26,12.49,47.59359,-54.27349
2021-02-21 01:14:01+00:00,28.0,9.76,38.0,12.2,12.41,47.59359,-54.27349
2021-02-21 01:24:01+00:00,45.0,12.29,45.0,13.75,12.41,47.59359,-54.27349
2021-02-21 01:34:01+00:00,35.0,10.43,35.0,12.48,12.41,47.59359,-54.27349
2021-02-21 01:44:01+00:00,28.0,10.19,39.0,12.76,12.41,47.59359,-54.27349
2021-02-21 01:54:01+00:00,22.0,10.64,22.0,12.0,12.41,47.59359,-54.27349
2021-02-21 02:04:01+00:00,20.0,11.07,22.0,12.93,12.41,47.59359,-54.27349
2021-02-21 02:14:01+00:00,22.0,10.57,34.0,12.01,12.41,47.59359,-54.27349
2021-02-21 02:24:01+00:00,25.0,9.53,19.0,10.64,12.41,47.59359,-54.27349
2021-02-21 02:34:01+00:00,22.0,10.27,21.0,12.04,12.41,47.59359,-54.27349
2021-02-21 02:44:01+00:00,18.0,10.41,15.0,11.91,12.41,47.59359,-54.27349
2021-02-21 02:54:01+00:00,15.0,11.48,18.0,13.36,12.41,47.59359,-54.27349
2021-02-21 03:04:01+00:00,20.0,10.3,11.0,11.98,12.41,47.59359,-54.27349
2021-02-21 03:14:01+00:00,12.0,10.31,3.0,11.88,12.41,47.59359,-54.27349
2021-02-21 03:24:01+00:00,12.0,11.5,15.0,13.49,12.41,47.59359,-54.27349
2021-02-21 03:34:01+00:00,9.0,11.25,14.0,13.81,12.41,47.59359,-54.27349
2021-02-21 03:44:01+00:00,17.0,11.31,18.0,12.79,12.41,47.59359,-54.27349
2021-02-21 03:54:01+00:00,14.0,12.64,13.0,16.49,12.41,47.59359,-54.27349
2021-02-21 04:04:01+00:00,5.0,10.98,5.0,13.1,12.41,47.59359,-54.27349
2021-02-21 04:14:01+00:00,6.0,11.97,3.0,14.44,12.33,47.59359,-54.27349
2021-02-21 04:24:01+00:00,8.0,11.26,1.0,14.19,12.33,47.59359,-54.27349
2021-02-21 04:34:01+00:00,8.0,11.79,8.0,13.74,12.33,47.59359,-54.27349
2021-02-21 04:44:01+00:00,3.0,12.21,359.0,14.52,12.33,47.59359,-54.27349
2021-02-21 04:54:01+00:00,9.0,11.37,14.0,13.7,12.33,47.59359,-54.27349
2021-02-21 05:04:01+00:00,4.0,13.55,0.0,16.41,12.33,47.59359,-54.27349
2021-02-21 05:14:01+00:00,9.0,11.99,5.0,14.32,12.33,47.59359,-54.27349
2021-02-21 05:24:01+00:00,6.0,11.46,5.0,13.45,12.33,47.59359,-54.27349
2021-02-21 05:34:01+00:00,10.0,11.53,13.0,13.29,12.33,47.59359,-54.27349
2021-02-21 05:44:01+00:00,5.0,12.18,3.0,14.6,12.33,47.59359,-54.27349
2021-02-21 05:54:01+00:00,3.0,11.61,1.0,14.0,12.33,47.59359,-54.27349
2021-02-21 06:04:01+00:00,5.0,10.72,4.0,12.78,12.33,47.59359,-54.27349
2021-02-21 06:14:01+00:00,3.0,10.99,3.0,12.56,12.25,47.59359,-54.27349
2021-02-21 06:24:01+00:00,3.0,11.53,6.0,14.36,12.25,47.59359,-54.27349
2021-02-21 06:34:01+00:00,9.0,10.51,2.0,12.75,12.25,47.59359,-54.27349
2021-02-21 06:44:01+00:00,18.0,10.49,25.0,12.18,12.25,47.59359,-54.27349
2021-02-21 06:54:01+00:00,13.0,12.13,8.0,14.01,12.25,47.59359,-54.27349
2021-02-21 07:04:01+00:00,16.0,12.4,18.0,14.38,12.25,47.59359,-54.27349
2021-02-21 07:14:01+00:00,3.0,11.95,358.0,13.9,12.17,47.59359,-54.27349
2021-02-21 07:24:01+00:00,6.0,10.27,0.0,12.25,12.17,47.59359,-54.27349
2021-02-21 07:34:01+00:00,4.0,11.06,1.0,13.18,12.17,47.59359,-54.27349
2021-02-21 07:44:01+00:00,13.0,11.66,10.0,13.62,12.17,47.59359,-54.27349
2021-02-21 07:54:01+00:00,10.0,10.98,15.0,12.94,12.17,47.59359,-54.27349
2021-02-21 08:04:01+00:00,16.0,11.83,14.0,14.25,12.17,47.59359,-54.27349
2021-02-21 08:14:01+00:00,5.0,11.6,1.0,13.73,12.17,47.59359,-54.27349
2021-02-21 08:24:01+00:00,5.0,10.71,6.0,13.18,12.17,47.59359,-54.27349
2021-02-21 08:34:01+00:00,1.0,12.65,0.0,14.61,12.17,47.59359,-54.27349
2021-02-21 08:44:01+00:00,12.0,12.56,4.0,13.95,12.17,47.59359,-54.27349
2021-02-21 08:54:01+00:00,4.0,11.41,356.0,13.41,12.17,47.59359,-54.27349
2021-02-21 09:04:01+00:00,2.0,12.68,0.0,14.44,12.17,47.59359,-54.27349
2021-02-21 09:14:01+00:00,3.0,10.9,4.0,14.79,12.17,47.59359,-54.27349
2021-02-21 09:24:01+00:00,359.0,12.49,357.0,14.17,12.17,47.59359,-54.27349
2021-02-21 09:34:01+00:00,5.0,11.78,5.0,13.67,12.17,47.59359,-54.27349
2021-02-21 09:44:01+00:00,357.0,11.38,350.0,13.45,12.17,47.59359,-54.27349
2021-02-21 09:54:01+00:00,0.0,9.72,1.0,11.17,12.17,47.59359,-54.27349
2021-02-21 10:04:01+00:00,351.0,10.43,349.0,11.84,12.17,47.59359,-54.27349
2021-02-21 10:14:01+00:00,359.0,10.41,1.0,11.76,12.17,47.59359,-54.27349
2021-02-21 10:24:01+00:00,358.0,8.92,6.0,10.02,12.17,47.59359,-54.27349
2021-02-21 10:34:01+00:00,352.0,9.62,357.0,11.96,12.17,47.59359,-54.27349
2021-02-21 10:44:01+00:00,345.0,8.82,345.0,10.55,12.17,47.59359,-54.27349
2021-02-21 10:54:01+00:00,344.0,9.1,332.0,11.86,12.17,47.59359,-54.27349
2021-02-21 11:04:01+00:00,338.0,8.98,339.0,10.25,12.17,47.59359,-54.27349
2021-02-21 11:14:01+00:00,349.0,10.47,347.0,12.42,12.25,47.59359,-54.27349
2021-02-21 11:24:01+00:00,341.0,11.23,327.0,14.12,12.25,47.59359,-54.27349
2021-02-21 11:34:01+00:00,340.0,10.16,326.0,11.93,12.25,47.59359,-54.27349
2021-02-21 11:44:01+00:00,345.0,12.74,346.0,13.52,12.25,47.59359,-54.27349
2021-02-21 11:54:01+00:00,336.0,11.43,331.0,13.95,12.25,47.59359,-54.27349
2021-02-21 12:04:01+00:00,341.0,10.26,322.0,13.28,12.25,47.59359,-54.27349
2021-02-21 12:14:01+00:00,331.0,13.11,327.0,15.48,13.84,47.59359,-54.27349
2021-02-21 12:24:01+00:00,341.0,11.49,347.0,13.71,13.84,47.59359,-54.27349
2021-02-21 12:34:01+00:00,339.0,11.67,345.0,13.63,13.84,47.59359,-54.27349
2021-02-21 12:44:01+00:00,327.0,13.63,328.0,15.85,13.84,47.59359,-54.27349
2021-02-21 12:54:01+00:00,324.0,13.19,322.0,15.05,13.84,47.59359,-54.27349
2021-02-21 13:04:01+00:00,334.0,12.11,326.0,13.77,13.84,47.59359,-54.27349
2021-02-21 13:14:01+00:00,336.0,14.23,332.0,17.22,13.68,47.59359,-54.27349
2021-02-21 13:24:01+00:00,330.0,14.03,333.0,16.47,13.68,47.59359,-54.27349
2021-02-21 13:34:01+00:00,339.0,13.6,341.0,16.27,13.68,47.59359,-54.27349
2021-02-21 13:44:01+00:00,337.0,12.66,340.0,15.14,13.68,47.59359,-54.27349
2021-02-21 13:54:01+00:00,339.0,12.05,334.0,15.23,13.68,47.59359,-54.27349
2021-02-21 14:04:01+00:00,334.0,12.51,319.0,14.55,13.68,47.59359,-54.27349
2021-02-21 14:14:01+00:00,335.0,11.37,321.0,13.94,13.68,47.59359,-54.27349
2021-02-21 14:24:01+00:00,353.0,10.23,2.0,12.4,13.68,47.59359,-54.27349
2021-02-21 14:34:01+00:00,343.0,9.7,347.0,11.71,13.68,47.59359,-54.27349
2021-02-21 14:44:01+00:00,352.0,10.77,352.0,12.58,13.68,47.59359,-54.27349
2021-02-21 14:54:01+00:00,345.0,11.36,343.0,12.79,13.68,47.59359,-54.27349
2021-02-21 15:04:01+00:00,342.0,11.42,336.0,12.36,13.68,47.59359,-54.27349
2021-02-21 15:14:01+00:00,345.0,10.43,347.0,12.54,13.68,47.59359,-54.27349
2021-02-21 15:24:01+00:00,344.0,11.05,350.0,13.15,13.68,47.59359,-54.27349
2021-02-21 15:34:01+00:00,343.0,10.83,343.0,13.2,13.68,47.59359,-54.27349
2021-02-21 15:44:01+00:00,330.0,14.28,325.0,16.83,13.68,47.59359,-54.27349
2021-02-21 15:54:01+00:00,356.0,11.19,352.0,12.92,13.68,47.59359,-54.27349
2021-02-21 16:04:01+00:00,356.0,12.34,358.0,13.56,13.68,47.59359,-54.27349
2021-02-21 16:14:01+00:00,329.0,10.82,322.0,15.39,13.68,47.59359,-54.27349
2021-02-21 16:24:01+00:00,324.0,10.7,327.0,13.81,13.68,47.59359,-54.27349
2021-02-21 16:34:01+00:00,342.0,12.25,349.0,14.59,13.68,47.59359,-54.27349
2021-02-21 16:44:01+00:00,337.0,12.1,323.0,14.71,13.68,47.59359,-54.27349
2021-02-21 16:54:01+00:00,331.0,12.43,321.0,15.49,13.68,47.59359,-54.27349
2021-02-21 17:04:01+00:00,320.0,13.23,321.0,14.74,13.68,47.59359,-54.27349
2021-02-21 17:14:01+00:00,322.0,14.29,324.0,16.16,14.08,47.59359,-54.27349
2021-02-21 17:24:01+00:00,325.0,12.87,323.0,16.23,14.08,47.59359,-54.27349
2021-02-21 17:34:01+00:00,347.0,10.39,345.0,12.3,14.08,47.59359,-54.27349
2021-02-21 17:44:01+00:00,345.0,10.28,344.0,12.31,14.08,47.59359,-54.27349
2021-02-21 17:54:01+00:00,354.0,9.65,354.0,11.92,14.08,47.59359,-54.27349
2021-02-21 18:04:01+00:00,339.0,8.34,347.0,9.61,14.08,47.59359,-54.27349
2021-02-21 18:14:01+00:00,337.0,10.64,329.0,12.42,13.84,47.59359,-54.27349
2021-02-21 18:24:01+00:00,337.0,11.3,322.0,14.6,13.84,47.59359,-54.27349
2021-02-21 18:34:01+00:00,316.0,10.38,309.0,12.47,13.84,47.59359,-54.27349
2021-02-21 18:44:01+00:00,334.0,9.32,313.0,11.52,13.84,47.59359,-54.27349
2021-02-21 18:54:01+00:00,336.0,9.5,311.0,12.05,13.84,47.59359,-54.27349
2021-02-21 19:04:01+00:00,339.0,10.86,331.0,12.75,13.84,47.59359,-54.27349
2021-02-21 19:14:01+00:00,343.0,11.65,343.0,13.69,13.76,47.59359,-54.27349
2021-02-21 19:24:01+00:00,346.0,11.41,349.0,13.55,13.76,47.59359,-54.27349
2021-02-21 19:34:01+00:00,335.0,9.18,339.0,10.39,13.76,47.59359,-54.27349
2021-02-21 19:44:01+00:00,345.0,8.92,344.0,10.56,13.76,47.59359,-54.27349
2021-02-21 19:54:01+00:00,348.0,10.9,354.0,13.02,13.76,47.59359,-54.27349
2021-02-21 20:04:01+00:00,341.0,11.31,327.0,13.89,13.76,47.59359,-54.27349
2021-02-21 20:14:01+00:00,340.0,12.09,331.0,13.47,13.76,47.59359,-54.27349
2021-02-21 20:24:01+00:00,333.0,11.15,315.0,13.48,13.76,47.59359,-54.27349
2021-02-21 20:34:01+00:00,328.0,11.62,319.0,14.36,13.76,47.59359,-54.27349
2021-02-21 20:44:01+00:00,348.0,12.59,340.0,14.83,13.76,47.59359,-54.27349
2021-02-21 20:54:01+00:00,332.0,10.82,327.0,14.03,13.76,47.59359,-54.27349
2021-02-21 21:04:01+00:00,320.0,12.52,316.0,13.99,13.76,47.59359,-54.27349
2021-02-21 21:14:01+00:00,342.0,11.66,323.0,14.95,13.37,47.59359,-54.27349
2021-02-21 21:24:01+00:00,345.0,11.83,347.0,13.79,13.37,47.59359,-54.27349
2021-02-21 21:34:01+00:00,336.0,12.99,323.0,15.51,13.37,47.59359,-54.27349
2021-02-21 21:44:01+00:00,343.0,10.8,349.0,12.2,13.37,47.59359,-54.27349
2021-02-21 21:54:01+00:00,346.0,10.56,343.0,12.55,13.37,47.59359,-54.27349
2021-02-21 22:04:01+00:00,349.0,9.98,349.0,12.17,13.37,47.59359,-54.27349
2021-02-21 22:14:01+00:00,351.0,10.88,349.0,13.28,12.65,47.59359,-54.27349
2021-02-21 22:24:01+00:00,354.0,10.03,351.0,11.93,12.65,47.59359,-54.27349
2021-02-21 22:34:01+00:00,355.0,11.42,351.0,13.42,12.65,47.59359,-54.27349
2021-02-21 22:44:01+00:00,350.0,11.19,346.0,12.41,12.65,47.59359,-54.27349
2021-02-21 22:54:01+00:00,356.0,9.79,351.0,12.17,12.65,47.59359,-54.27349
2021-02-21 23:04:01+00:00,344.0,11.03,346.0,13.86,12.65,47.59359,-54.27349
2021-02-21 23:14:01+00:00,354.0,11.68,356.0,14.4,12.49,47.59359,-54.27349
2021-02-21 23:24:01+00:00,348.0,9.78,343.0,11.85,12.49,47.59359,-54.27349
2021-02-21 23:34:01+00:00,351.0,10.09,352.0,11.43,12.49,47.59359,-54.27349
2021-02-21 23:44:01+00:00,349.0,11.73,353.0,13.65,12.49,47.59359,-54.27349
2021-02-21 23:54:01+00:00,357.0,10.23,355.0,12.62,12.49,47.59359,-54.27349
